Simultaneous Nadir Overpasses (SNOs) Predictions

Prediction of SNOs between GOES-16 and NOAA-21 Satellite Orbit:

Table of predicted SNOs for the next 14.0 days since TLE Epoch: 3/2/2024
Index Date Time (GOES-16) GOES-16 Lat,Lon NOAA-21 Lat,Lon Distance(km) Time Diff (sec)
1 03/02/2024 06:37:25 -0.07, -75.20 0.53, -78.01 319.73 80
2 03/03/2024 06:16:01 -0.07, -75.20 -0.46, -73.48 196.31 80
3 03/04/2024 18:37:59 0.06, -75.22 -0.76, -78.79 407.57 80
4 03/05/2024 18:21:57 0.06, -75.22 0.29, -74.27 108.81 80
5 03/07/2024 06:43:46 -0.05, -75.22 0.91, -79.54 492.15 80
6 03/08/2024 06:22:23 -0.05, -75.23 -0.09, -75.01 24.40 80
7 03/10/2024 18:25:39 0.04, -75.26 -0.06, -75.80 61.49 80
8 03/11/2024 18:09:35 0.04, -75.27 0.95, -71.27 455.87 80
9 03/13/2024 06:31:24 -0.04, -75.28 0.25, -76.54 143.48 80
10 03/14/2024 06:10:01 -0.04, -75.30 -0.75, -72.01 373.94 80
11 03/15/2024 18:31:59 0.04, -75.33 -0.43, -77.32 227.98 80
